Regional Weather Roundup
Issued by NWS

Home | Current Version | Previous Version | Text Only | Print | Product List | Glossary Off
Versions: 1 2 3 4 5 6 7 8 9 10 11 12 13 14 15 16 17 18 19 20 21 22 23 24 25 26 27 28 29 30 31 32 33 34 35 36 37 38 39 40 41 42 43 44 45 46 47 48 49

000
ASUS43 KDMX 282207
RWRIA

WEATHER ROUNDUP FOR IOWA
NATIONAL WEATHER SERVICE DES MOINES IA
400 PM CST SUN DEC 28 2014

NOTE: "FAIR" INDICATES FEW OR NO CLOUDS BELOW 12,000 FEET WITH NO
SIGNIFICANT WEATHER AND/OR OBSTRUCTIONS TO VISIBILITY.

* - THESE STATIONS ARE NOT NWS STATIONS...THUS NOT UNDER NWS
QUALITY CONTROL.  THEY ALSO DO NOT REPORT WEATHER SUCH
AS PRECIPITATION OR FOG.

IAZ001>003-012>014-020>022-031>034-043>046-282300-
   NORTHWEST IOWA

CITY           SKY/WX    TMP DP  RH WIND       PRES   REMARKS
CARROLL *      CLEAR     27  21  80 CALM      30.13R
CHEROKEE *     MOCLDY    23  18  80 NE6       30.14R WCI  16
DENISON *      CLEAR     28  21  74 E5        30.10S WCI  23
LE MARS *      CLEAR     21  16  79 NE8       30.15R WCI  12
ORANGE CITY *  CLEAR     23  18  80 NE5       30.13R WCI  17
SHELDON *      CLEAR     19  18  93 NE8       30.13S WCI   9
SIOUX CITY     MOCLDY    24  16  71 CALM      30.15R
SPENCER        PTCLDY    23  17  78 NE10      30.15R WCI  12
STORM LAKE *   CLEAR     19  16  86 NE9       30.13R WCI   9
$$

IAZ055>058-069>071-079>083-090>094-282300-
   SOUTHWEST IOWA

CITY           SKY/WX    TMP DP  RH WIND       PRES   REMARKS
ATLANTIC *     CLEAR     32  23  69 S3        30.11S
AUDUBON *      PTCLDY    30  19  64 CALM      30.12S
CLARINDA *     CLEAR     37  23  56 CALM      30.14S
COUNCIL BLFS * CLEAR     32  23  69 W6        30.10R WCI  26
CRESTON *      CLEAR     36  23  60 SW7       30.11S WCI  30
HARLAN  *      CLEAR     32  25  74 CALM      30.14S
LAMONI         CLEAR     37  20  50 SW8       30.12S WCI  31
RED OAK *      CLEAR     34  25  69 SW3       30.12S
SHENANDOAH *   CLEAR     36  27  69 SW5       30.12F WCI  32
$$

IAZ047>049-059>061-072>074-084-282300-
   CENTRAL IOWA

CITY           SKY/WX    TMP DP  RH WIND       PRES   REMARKS
AMES           CLEAR     32  22  66 CALM      30.14S
ANKENY *       CLEAR     32  21  64 CALM      30.14S
CHARITON *     CLEAR     36  23  60 CALM      30.13S
DES MOINES     PTCLDY    36  22  56 W3        30.14S
GRINNELL*      CLEAR     32  23  69 CALM      30.14S
KNOXVILLE *    CLEAR     34  21  60 SW3       30.12S
MARSHALLTOWN   CLEAR     32  23  69 CALM      30.14R
PELLA *        CLEAR     36  23  60 CALM      30.15S
PERRY *          N/A     32  25  74 CALM      30.14R
$$

IAZ004>006-015-016-023>025-035-036-282300-
   NORTH CENTRAL IOWA

CITY           SKY/WX    TMP DP  RH WIND       PRES   REMARKS
ALGONA *       CLEAR     19  18  93 NE7       30.17R WCI  10
CLARION *      CLEAR     19  18  93 NW3       30.16R
ESTHERVILLE    PTCLDY    19  15  84 N8        30.16R WCI   9
FORT DODGE *   PTCLDY    21  14  73 N6        30.16R WCI  14
MASON CITY     CLEAR     20  14  77 NE6       30.18R WCI  12
FOREST CITY *  CLEAR     21  14  73 N3        30.17R
IOWA FALLS *     N/A     30  21  69 CALM      30.16R
$$

IAZ007>011-017>019-026>030-037>042-050>054-066-282300-
   NORTHEAST IOWA

CITY           SKY/WX    TMP DP  RH WIND       PRES   REMARKS
CEDAR RAPIDS   CLEAR     32  16  51 CALM      30.15S
CHARLES CITY * CLEAR     25  21  86 N6        30.17R WCI  18
CLINTON *      CLEAR     30  18  59 W5        30.20S WCI  25
DECORAH *      CLEAR     27  21  80 NW6       30.15R WCI  20
DUBUQUE        CLEAR     29  14  53 W6        30.15S WCI  23
MONTICELLO *   CLEAR     32  14  47 CALM      30.17R
OELWEIN *      CLEAR     30  19  64 W3        30.16R
WATERLOO       CLEAR     30  20  66 SW3       30.16R
$$

IAZ064-065-067-068-078-282300-
   EAST CENTRAL IOWA

CITY           SKY/WX    TMP DP  RH WIND       PRES   REMARKS
DAVENPORT      CLEAR     32  17  54 NW6       30.17S WCI  26
IOWA CITY      CLEAR     33  17  51 CALM      30.18S
MT. PLEASANT * CLEAR     36  12  38 SW3       30.17R
MUSCATINE *    CLEAR     36  16  44 CALM      30.19R
QUAD CITIES    CLEAR     36  17  46 CALM      30.17R
$$

IAZ062-063-075>077-085>089-095>099-282300-
   SOUTHEAST IOWA

CITY           SKY/WX    TMP DP  RH WIND       PRES   REMARKS
BURLINGTON     CLEAR     35  19  52 S6        30.16F WCI  30
FAIRFIELD *    CLEAR     36  19  51 SW5       30.16S WCI  32
FORT MADISON * CLEAR     37  18  44 S5        30.17S WCI  34
KEOKUK *       CLEAR     36  14  41 SW6       30.17R WCI  31
OSKALOOSA *      N/A     34  19  55 CALM      30.15R
CENTERVILLE *  CLEAR     36  19  51 SW3       30.15S
OTTUMWA        CLEAR     36  16  44 W5        30.15R WCI  32
WASHINGTON *   CLEAR     34  12  40 CALM      30.16S
$$

ABBREVIATIONS USED IN REMARKS
   TC - TEMPERATURES IN CELSIUS
  WCI - WIND CHILL INDEX
   HX - HEAT INDEX
  VSB - VISIBILITY
$$



USA.gov is the U.S. government's official web portal to all federal, state and local government web resources and services.